| time (UTC) | temp F | wind direction | speed knots | gust knots | rain 1hr in | rain 24hr in | rain mn in | humidity % | barometer mb |
| 20260504090105 | 57 | 190 | 2.6 | 2.6 | 0.00 | 0.00 | 0.00 | 47 | 996.4 |
| 20260504081535 | 56 | 176 | 0.0 | 0.9 | 0.00 | 0.00 | 0.00 | 47 | 997.8 |
| 20260504081031 | 56 | 173 | 1.7 | 2.6 | 0.00 | 0.00 | 0.00 | 47 | 998.0 |
| 20260504080527 | 56 | 167 | 0.9 | 0.9 | 0.00 | 0.00 | 0.00 | 46 | 997.9 |
| 20260504050340 | 55 | 161 | 0.9 | 0.9 | 0.00 | 0.00 | 0.00 | 49 | 1001.6 |
| 20260504045837 | 55 | 163 | 0.9 | 0.9 | 0.00 | 0.00 | 0.00 | 49 | 1001.5 |
| 20260504045332 | 54 | 167 | 0.9 | 1.7 | 0.00 | 0.00 | 0.00 | 50 | 1001.5 |
| 20260504044829 | 54 | 159 | 0.9 | 0.9 | 0.00 | 0.00 | 0.00 | 53 | 1001.6 |
| 20260504044326 | 54 | 159 | 0.0 | 0.0 | 0.00 | 0.00 | 0.00 | 53 | 1001.7 |
| 20260504043824 | 53 | 155 | 0.0 | 0.0 | 0.00 | 0.00 | 0.00 | 54 | 1001.9 |
| 20260504043321 | 53 | 155 | 0.0 | 0.0 | 0.00 | 0.00 | 0.00 | 55 | 1002.1 |
| 20260504042818 | 53 | 155 | 0.0 | 0.0 | 0.00 | 0.00 | 0.00 | 56 | 1001.9 |
| 20260504042314 | 52 | 155 | 0.0 | 0.0 | 0.00 | 0.00 | 0.00 | 56 | 1002.1 |
| 20260504041811 | 52 | 155 | 0.0 | 0.0 | 0.00 | 0.00 | 0.00 | 57 | 1001.9 |
| 20260504041307 | 52 | 155 | 0.0 | 0.0 | 0.00 | 0.00 | 0.00 | 58 | 1002.3 |
| 20260504040803 | 52 | 155 | 0.0 | 0.0 | 0.00 | 0.00 | 0.00 | 58 | 1002.3 |
| 20260504040301 | 52 | 155 | 0.0 | 0.0 | 0.00 | 0.00 | 0.00 | 59 | 1002.6 |
| 20260504035756 | 52 | 155 | 0.0 | 0.0 | 0.00 | 0.00 | 0.00 | 58 | 1002.6 |
| 20260504035254 | 52 | 155 | 0.0 | 0.0 | 0.00 | 0.00 | 0.00 | 57 | 1002.8 |
| 20260504034751 | 52 | 155 | 0.0 | 0.0 | 0.00 | 0.00 | 0.00 | 58 | 1002.7 |
| 20260504034249 | 52 | 154 | 0.0 | 0.0 | 0.00 | 0.00 | 0.00 | 58 | 1003.1 |
| 20260504033746 | 53 | 154 | 0.0 | 0.0 | 0.00 | 0.00 | 0.00 | 57 | 1003.1 |
| 20260504033243 | 53 | 154 | 0.0 | 0.0 | 0.00 | 0.00 | 0.00 | 55 | 1003.4 |
| 20260504032740 | 53 | 155 | 0.0 | 0.0 | 0.00 | 0.00 | 0.00 | 55 | 1003.2 |
| 20260504032237 | 53 | 154 | 0.0 | 0.0 | 0.00 | 0.00 | 0.00 | 54 | 1003.4 |
| 20260504031734 | 53 | 154 | 0.0 | 0.0 | 0.00 | 0.00 | 0.00 | 53 | 1003.5 |
| 20260504031231 | 54 | 154 | 0.0 | 0.0 | 0.00 | 0.00 | 0.00 | 52 | 1003.4 |
| 20260504030727 | 55 | 154 | 0.0 | 0.0 | 0.00 | 0.00 | 0.00 | 51 | 1003.4 |
| 20260504030225 | 55 | 154 | 0.0 | 0.0 | 0.00 | 0.00 | 0.00 | 52 | 1003.5 |
| 20260504025721 | 55 | 154 | 0.0 | 0.0 | 0.00 | 0.00 | 0.00 | 50 | 1003.5 |
| 20260504025218 | 56 | 154 | 0.0 | 0.0 | 0.00 | 0.00 | 0.00 | 48 | 1003.4 |
| 20260504024715 | 56 | 154 | 0.0 | 0.0 | 0.00 | 0.00 | 0.00 | 47 | 1003.5 |
| 20260504024211 | 57 | 154 | 0.0 | 0.0 | 0.00 | 0.00 | 0.00 | 45 | 1003.5 |
| 20260504023708 | 57 | 154 | 0.0 | 0.0 | 0.00 | 0.00 | 0.00 | 44 | 1003.7 |
| 20260504023204 | 58 | 154 | 0.0 | 0.0 | 0.00 | 0.00 | 0.00 | 42 | 1003.5 |
| 20260504022700 | 59 | 155 | 0.0 | 0.0 | 0.00 | 0.00 | 0.00 | 42 | 1003.4 |
| 20260504022156 | 60 | 155 | 0.0 | 0.0 | 0.00 | 0.00 | 0.00 | 40 | 1003.7 |
| 20260504021654 | 60 | 155 | 0.0 | 0.0 | 0.00 | 0.00 | 0.00 | 39 | 1003.8 |
| 20260504021150 | 61 | 154 | 0.0 | 0.0 | 0.00 | 0.00 | 0.00 | 38 | 1003.8 |
| 20260504020648 | 61 | 164 | 0.0 | 0.0 | 0.00 | 0.00 | 0.00 | 38 | 1003.9 |
| 20260504020143 | 62 | 166 | 0.0 | 0.0 | 0.00 | 0.00 | 0.00 | 37 | 1003.8 |
| 20260504015641 | 62 | 155 | 0.0 | 0.0 | 0.00 | 0.00 | 0.00 | 37 | 1004.0 |
| 20260504015137 | 62 | 104 | 0.0 | 0.0 | 0.00 | 0.00 | 0.00 | 36 | 1004.0 |
| 20260504014632 | 62 | 159 | 0.0 | 0.0 | 0.00 | 0.00 | 0.00 | 36 | 1003.9 |
| 20260504014130 | 62 | 129 | 0.0 | 0.0 | 0.00 | 0.00 | 0.00 | 35 | 1003.8 |
| 20260504013628 | 63 | 155 | 0.0 | 0.0 | 0.00 | 0.00 | 0.00 | 35 | 1003.9 |
| 20260504013125 | 63 | 151 | 0.0 | 0.0 | 0.00 | 0.00 | 0.00 | 35 | 1003.9 |
| 20260504012622 | 64 | 155 | 0.0 | 0.0 | 0.00 | 0.00 | 0.00 | 35 | 1003.9 |
| 20260504012120 | 64 | 158 | 0.0 | 0.0 | 0.00 | 0.00 | 0.00 | 34 | 1004.0 |
| 20260504011616 | 65 | 148 | 0.0 | 0.0 | 0.00 | 0.00 | 0.00 | 32 | 1004.0 |
| 20260504011112 | 65 | 148 | 0.0 | 0.0 | 0.00 | 0.00 | 0.00 | 31 | 1004.0 |
| 20260504010608 | 66 | 157 | 0.0 | 0.0 | 0.00 | 0.00 | 0.00 | 31 | 1004.1 |
| 20260504010104 | 66 | 159 | 0.0 | 0.0 | 0.00 | 0.00 | 0.00 | 30 | 1004.0 |
| 20260504005601 | 66 | 169 | 0.0 | 0.0 | 0.00 | 0.00 | 0.00 | 30 | 1004.1 |
| 20260504005058 | 67 | 123 | 0.0 | 0.0 | 0.00 | 0.00 | 0.00 | 29 | 1004.0 |
| 20260504004556 | 67 | 223 | 0.0 | 0.0 | 0.00 | 0.00 | 0.00 | 29 | 1004.0 |
| 20260504004053 | 67 | 149 | 0.0 | 0.0 | 0.00 | 0.00 | 0.00 | 29 | 1004.1 |
| 20260504003549 | 67 | 155 | 0.0 | 0.9 | 0.00 | 0.00 | 0.00 | 29 | 1004.2 |
| 20260504003046 | 68 | 297 | 3.5 | 4.3 | 0.00 | 0.00 | 0.00 | 28 | 1004.2 |
| 20260504002543 | 68 | 294 | 1.7 | 2.6 | 0.00 | 0.00 | 0.00 | 28 | 1004.3 |
| 20260504002041 | 68 | 296 | 2.6 | 4.3 | 0.00 | 0.00 | 0.00 | 28 | 1004.1 |
| 20260504001538 | 68 | 246 | 2.6 | 2.6 | 0.00 | 0.00 | 0.00 | 28 | 1004.1 |
| 20260504001034 | 69 | 9 | 1.7 | 1.7 | 0.00 | 0.00 | 0.00 | 29 | 1004.1 |
| 20260504000531 | 69 | 159 | 0.9 | 0.9 | 0.00 | 0.00 | 0.00 | 27 | 1004.2 |
| 20260504000029 | 70 | 144 | 0.0 | 0.0 | 0.00 | 0.00 | 0.00 | 27 | 1004.2 |
| 20260503235527 | 70 | 187 | 0.9 | 1.7 | 0.00 | 0.00 | 0.00 | 27 | 1004.2 |
| 20260503235023 | 70 | 103 | 0.0 | 0.9 | 0.00 | 0.00 | 0.00 | 27 | 1004.3 |
| 20260503234521 | 71 | 278 | 0.9 | 0.9 | 0.00 | 0.00 | 0.00 | 28 | 1004.4 |
| 20260503234019 | 71 | 171 | 0.9 | 0.9 | 0.00 | 0.00 | 0.00 | 26 | 1004.2 |
| 20260503233515 | 71 | 221 | 1.7 | 1.7 | 0.00 | 0.00 | 0.00 | 26 | 1004.4 |
| 20260503233011 | 70 | 294 | 1.7 | 4.3 | 0.00 | 0.00 | 0.00 | 26 | 1004.6 |
| 20260503232508 | 71 | 91 | 0.0 | 0.9 | 0.00 | 0.00 | 0.00 | 26 | 1004.4 |
| 20260503232006 | 71 | 224 | 3.5 | 4.3 | 0.00 | 0.00 | 0.00 | 26 | 1004.5 |
| 20260503231504 | 71 | 251 | 0.9 | 0.9 | 0.00 | 0.00 | 0.00 | 25 | 1004.6 |
| 20260503231000 | 71 | 7 | 1.7 | 1.7 | 0.00 | 0.00 | 0.00 | 26 | 1004.7 |
| 20260503230457 | 71 | 2 | 5.2 | 6.1 | 0.00 | 0.00 | 0.00 | 25 | 1004.6 |
| 20260503225954 | 70 | 294 | 1.7 | 1.7 | 0.00 | 0.00 | 0.00 | 27 | 1004.7 |
| 20260503225451 | 70 | 350 | 3.5 | 4.3 | 0.00 | 0.00 | 0.00 | 25 | 1004.6 |
| 20260503224946 | 71 | 159 | 0.9 | 1.7 | 0.00 | 0.00 | 0.00 | 27 | 1004.7 |
| 20260503224443 | 71 | 300 | 4.3 | 5.2 | 0.00 | 0.00 | 0.00 | 25 | 1004.9 |
| 20260503223941 | 71 | 263 | 3.5 | 5.2 | 0.00 | 0.00 | 0.00 | 25 | 1004.9 |
| 20260503223439 | 71 | 281 | 4.3 | 6.1 | 0.00 | 0.00 | 0.00 | 25 | 1004.9 |
| 20260503222934 | 71 | 137 | 0.0 | 0.9 | 0.00 | 0.00 | 0.00 | 24 | 1004.7 |
| 20260503222433 | 71 | 200 | 1.7 | 2.6 | 0.00 | 0.00 | 0.00 | 25 | 1004.9 |
| 20260503221931 | 70 | 217 | 0.9 | 1.7 | 0.00 | 0.00 | 0.00 | 27 | 1005.0 |
| 20260503221429 | 70 | 351 | 3.5 | 5.2 | 0.00 | 0.00 | 0.00 | 26 | 1004.8 |
| 20260503220926 | 71 | 179 | 0.9 | 1.7 | 0.00 | 0.00 | 0.00 | 26 | 1005.0 |
| 20260503220422 | 71 | 256 | 0.9 | 1.7 | 0.00 | 0.00 | 0.00 | 25 | 1005.1 |
| 20260503215919 | 71 | 352 | 2.6 | 4.3 | 0.00 | 0.00 | 0.00 | 26 | 1004.9 |
| 20260503215416 | 71 | 312 | 2.6 | 4.3 | 0.00 | 0.00 | 0.00 | 25 | 1005.1 |
| 20260503214914 | 71 | 250 | 1.7 | 2.6 | 0.00 | 0.00 | 0.00 | 25 | 1005.3 |
| 20260503214411 | 71 | 307 | 1.7 | 2.6 | 0.00 | 0.00 | 0.00 | 25 | 1005.3 |
| 20260503213908 | 71 | 312 | 4.3 | 5.2 | 0.00 | 0.00 | 0.00 | 25 | 1005.2 |
| 20260503213406 | 70 | 327 | 2.6 | 4.3 | 0.00 | 0.00 | 0.00 | 26 | 1005.3 |
| 20260503212902 | 70 | 147 | 4.3 | 6.1 | 0.00 | 0.00 | 0.00 | 25 | 1005.2 |
| 20260503212400 | 71 | 324 | 3.5 | 4.3 | 0.00 | 0.00 | 0.00 | 26 | 1005.2 |
| 20260503211857 | 70 | 297 | 4.3 | 7.0 | 0.00 | 0.00 | 0.00 | 26 | 1005.2 |
| 20260503211354 | 70 | 339 | 6.1 | 7.8 | 0.00 | 0.00 | 0.00 | 27 | 1005.3 |
| 20260503210849 | 71 | 5 | 3.5 | 4.3 | 0.00 | 0.00 | 0.00 | 26 | 1005.4 |
| 20260503210347 | 71 | 236 | 4.3 | 6.1 | 0.00 | 0.00 | 0.00 | 27 | 1005.3 |
| 20260503205841 | 70 | 299 | 2.6 | 2.6 | 0.00 | 0.00 | 0.00 | 28 | 1005.3 |
| 20260503205338 | 71 | 272 | 2.6 | 2.6 | 0.00 | 0.00 | 0.00 | 30 | 1005.5 |
| 20260503204834 | 71 | 353 | 6.1 | 7.0 | 0.00 | 0.00 | 0.00 | 26 | 1005.6 |
| 20260503204332 | 71 | 325 | 2.6 | 4.3 | 0.00 | 0.00 | 0.00 | 28 | 1005.7 |
| 20260503203829 | 71 | 323 | 2.6 | 2.6 | 0.00 | 0.00 | 0.00 | 30 | 1005.7 |
| 20260503203327 | 71 | 205 | 0.9 | 1.7 | 0.00 | 0.00 | 0.00 | 29 | 1005.4 |
| 20260503202823 | 70 | 319 | 4.3 | 7.0 | 0.00 | 0.00 | 0.00 | 29 | 1005.5 |
| 20260503202322 | 71 | 321 | 0.9 | 1.7 | 0.00 | 0.00 | 0.00 | 30 | 1005.6 |
| 20260503201820 | 70 | 258 | 5.2 | 6.1 | 0.00 | 0.00 | 0.00 | 29 | 1005.7 |
| 20260503201316 | 70 | 313 | 2.6 | 2.6 | 0.00 | 0.00 | 0.00 | 30 | 1005.6 |
| 20260503200814 | 70 | 350 | 3.5 | 4.3 | 0.00 | 0.00 | 0.00 | 29 | 1005.9 |
| 20260503200309 | 70 | 261 | 3.5 | 4.3 | 0.00 | 0.00 | 0.00 | 29 | 1005.8 |
| 20260503195807 | 69 | 319 | 4.3 | 6.1 | 0.00 | 0.00 | 0.00 | 31 | 1006.0 |
| 20260503195304 | 70 | 178 | 4.3 | 6.1 | 0.00 | 0.00 | 0.00 | 30 | 1006.0 |
| 20260503194801 | 70 | 262 | 3.5 | 6.1 | 0.00 | 0.00 | 0.00 | 29 | 1005.7 |
| 20260503194256 | 70 | 359 | 1.7 | 2.6 | 0.00 | 0.00 | 0.00 | 29 | 1005.9 |
| 20260503193753 | 69 | 286 | 5.2 | 7.0 | 0.00 | 0.00 | 0.00 | 28 | 1006.0 |
| 20260503193249 | 70 | 84 | 2.6 | 4.3 | 0.00 | 0.00 | 0.00 | 29 | 1006.0 |
| 20260503192745 | 68 | 57 | 0.9 | 0.9 | 0.00 | 0.00 | 0.00 | 29 | 1006.2 |
| 20260503192240 | 69 | 312 | 7.8 | 9.6 | 0.00 | 0.00 | 0.00 | 29 | 1006.4 |
| 20260503191737 | 68 | 315 | 4.3 | 7.0 | 0.00 | 0.00 | 0.00 | 31 | 1006.2 |
| 20260503191234 | 69 | 314 | 5.2 | 6.1 | 0.00 | 0.00 | 0.00 | 30 | 1006.2 |
| 20260503190731 | 70 | 331 | 1.7 | 1.7 | 0.00 | 0.00 | 0.00 | 29 | 1006.1 |
| 20260503190228 | 69 | 12 | 1.7 | 1.7 | 0.00 | 0.00 | 0.00 | 30 | 1006.4 |
| 20260503185725 | 69 | 233 | 3.5 | 7.0 | 0.00 | 0.00 | 0.00 | 28 | 1006.2 |
| 20260503185220 | 69 | 173 | 1.7 | 2.6 | 0.00 | 0.00 | 0.00 | 28 | 1006.1 |
| 20260503184715 | 69 | 315 | 3.5 | 4.3 | 0.00 | 0.00 | 0.00 | 27 | 1006.1 |
| 20260503184212 | 69 | 310 | 4.3 | 7.8 | 0.00 | 0.00 | 0.00 | 29 | 1006.1 |
| 20260503183708 | 69 | 334 | 6.1 | 6.1 | 0.00 | 0.00 | 0.00 | 31 | 1006.3 |
| 20260503183206 | 70 | 325 | 2.6 | 4.3 | 0.00 | 0.00 | 0.00 | 29 | 1006.3 |
| 20260503182704 | 68 | 85 | 0.9 | 0.9 | 0.00 | 0.00 | 0.00 | 31 | 1006.4 |
| 20260503182202 | 68 | 335 | 4.3 | 6.1 | 0.00 | 0.00 | 0.00 | 32 | 1006.4 |
| 20260503181658 | 68 | 320 | 4.3 | 6.1 | 0.00 | 0.00 | 0.00 | 32 | 1006.4 |
| 20260503181155 | 69 | 325 | 4.3 | 6.1 | 0.00 | 0.00 | 0.00 | 34 | 1006.7 |
| 20260503180652 | 68 | 302 | 6.1 | 7.8 | 0.00 | 0.00 | 0.00 | 30 | 1006.7 |
| 20260503180150 | 68 | 339 | 7.0 | 7.8 | 0.00 | 0.00 | 0.00 | 34 | 1006.5 |
| 20260503175647 | 69 | 293 | 1.7 | 1.7 | 0.00 | 0.00 | 0.00 | 37 | 1006.5 |
| 20260503175144 | 67 | 350 | 2.6 | 5.2 | 0.00 | 0.00 | 0.00 | 37 | 1006.5 |
| 20260503174640 | 68 | 305 | 4.3 | 6.1 | 0.00 | 0.00 | 0.00 | 35 | 1006.7 |
| 20260503174138 | 67 | 341 | 2.6 | 4.3 | 0.00 | 0.00 | 0.00 | 37 | 1006.7 |
| 20260503173632 | 68 | 331 | 6.1 | 8.7 | 0.00 | 0.00 | 0.00 | 38 | 1006.8 |
| 20260503173129 | 69 | 332 | 6.1 | 7.8 | 0.00 | 0.00 | 0.00 | 37 | 1006.5 |
| 20260503172626 | 68 | 63 | 0.9 | 0.9 | 0.00 | 0.00 | 0.00 | 39 | 1006.6 |
| 20260503172124 | 67 | 333 | 1.7 | 1.7 | 0.00 | 0.00 | 0.00 | 40 | 1006.6 |
| 20260503171620 | 67 | 357 | 3.5 | 5.2 | 0.00 | 0.00 | 0.00 | 39 | 1006.8 |
| 20260503171117 | 67 | 329 | 1.7 | 4.3 | 0.00 | 0.00 | 0.00 | 39 | 1006.5 |
| 20260503170614 | 67 | 325 | 5.2 | 6.1 | 0.00 | 0.00 | 0.00 | 40 | 1006.7 |
| 20260503170111 | 68 | 291 | 7.0 | 8.7 | 0.00 | 0.00 | 0.00 | 39 | 1006.7 |
| 20260503151006 | 63 | 343 | 5.2 | 7.0 | 0.00 | 0.00 | 0.00 | 44 | 1006.4 |
| 20260503150503 | 64 | 9 | 2.6 | 6.1 | 0.00 | 0.00 | 0.00 | 44 | 1006.4 |
| 20260503131355 | 57 | 292 | 3.5 | 4.3 | 0.00 | 0.00 | 0.00 | 55 | 1005.7 |
| 20260503130853 | 56 | 351 | 1.7 | 2.6 | 0.00 | 0.00 | 0.00 | 55 | 1005.6 |
| 20260503130350 | 56 | 335 | 1.7 | 2.6 | 0.00 | 0.00 | 0.00 | 55 | 1005.6 |
| 20260503110744 | 51 | 140 | 0.0 | 0.0 | 0.00 | 0.00 | 0.00 | 56 | 1004.3 |
| 20260503110241 | 51 | 133 | 0.0 | 0.0 | 0.00 | 0.00 | 0.00 | 56 | 1004.2 |
| 20260503100207 | 55 | 177 | 2.6 | 2.6 | 0.00 | 0.00 | 0.00 | 49 | 1004.5 |